ContactaLinksHome
    
DADES METEOROLÒGIQUES DE LES ÚLTIMES 24 HORES
 

Taire  Temperatura de l'aire  (ºC)
HumitatR  Humitat relativa de l'aire (%)
Pluja  Litres de pluja per metre cuadrat caiguts en 10 minuts (l/m²)
VelVent  Velocitat mitjana del vent (m/s)
DirVent  Direcció del vent  (º)
RadSolar  Intensitat de Radiació solar (w/m²)
PressAtm  Pressió atmosfèrica (mb)
  ***Dades sense verificar
DataTaireHumitatRPlujaVelVentDirVentRadSolarPressAtm
18/08/2019 20:20:0025.4820,02.36101012
18/08/2019 20:10:0025.4820,02.06501012
18/08/2019 20:00:0025.4820,01.98301012
18/08/2019 19:50:0025.5810,01.77901012
18/08/2019 19:40:0025.6810,01.17801011
18/08/2019 19:30:0025.7800,00.77401011
18/08/2019 19:20:0025.7800,01.414201011
18/08/2019 19:10:0025.7800,01.215001011
18/08/2019 19:00:0025.7800,01.517901011
18/08/2019 18:50:0025.6800,02.117841011
18/08/2019 18:40:0025.7810,02.7183141011
18/08/2019 18:30:0025.7820,03.1180251011
18/08/2019 18:20:0025.7820,03.6180381011
18/08/2019 18:10:0025.7810,03.3176381011
18/08/2019 18:00:0025.7810,03.6187541011
18/08/2019 17:50:0025.8810,03.4183331011
18/08/2019 17:40:0025.8820,03.5181521011
18/08/2019 17:30:0025.9820,03.4172871011
18/08/2019 17:20:0025.9810,03.61691581011
18/08/2019 17:10:0025.9810,03.81861211011
18/08/2019 17:00:0026.0800,04.4188731011
18/08/2019 16:50:0026.1800,04.61872151011
18/08/2019 16:40:0026.1790,05.21923361011
18/08/2019 16:30:0026.1790,05.31913621011
18/08/2019 16:20:0026.2790,05.51903851011
18/08/2019 16:10:0026.1780,05.51994131011
18/08/2019 16:00:0026.2780,05.81884441011
18/08/2019 15:50:0026.1770,06.81844731011
18/08/2019 15:40:0026.2770,06.91875001011
18/08/2019 15:30:0026.3770,07.21875241011
18/08/2019 15:20:0026.2770,07.31945511011
18/08/2019 15:10:0026.2780,06.91995761011
18/08/2019 15:00:0026.2770,07.41926061011
18/08/2019 14:50:0026.2780,07.61916351011
18/08/2019 14:40:0026.2780,07.41986621011
18/08/2019 14:30:0026.2780,07.21936631011
18/08/2019 14:20:0026.2780,07.21977001011
18/08/2019 14:10:0026.1780,07.41987541011
18/08/2019 14:00:0026.1780,07.71947591011
18/08/2019 13:50:0026.1790,07.51985701011
18/08/2019 13:40:0026.1790,07.51995791011
18/08/2019 13:30:0026.1790,07.41986681011
18/08/2019 13:20:0026.1790,07.91968241011
18/08/2019 13:10:0026.1790,07.51978471012
18/08/2019 13:00:0026.1790,07.61928571012
18/08/2019 12:50:0026.0800,07.51938471012
18/08/2019 12:40:0026.0810,06.71968991012
18/08/2019 12:30:0025.9820,06.41887761012
18/08/2019 12:20:0025.8810,06.82025811012
18/08/2019 12:10:0025.8810,07.02015641012
18/08/2019 12:00:0025.8800,07.72006301012
18/08/2019 11:50:0025.8800,07.92028181012
18/08/2019 11:40:0025.8810,07.62009241012
18/08/2019 11:30:0025.7810,07.21959241012
18/08/2019 11:20:0025.7820,07.01859551012
18/08/2019 11:10:0025.6810,07.41909281012
18/08/2019 11:00:0025.6810,07.72018221012
18/08/2019 10:50:0025.7810,07.02008021012
18/08/2019 10:40:0025.6810,07.11978141012
18/08/2019 10:30:0025.6800,06.61948531012
18/08/2019 10:20:0025.6790,06.41908331012
18/08/2019 10:10:0025.6780,06.11928161012
18/08/2019 10:00:0025.6770,05.91877991012
18/08/2019 9:50:0025.7770,05.21917761012
18/08/2019 9:40:0025.7750,04.51857421012
18/08/2019 9:30:0025.8720,03.81737151012
18/08/2019 9:20:0025.9700,03.71806871012
18/08/2019 9:10:0025.9690,04.01776551012
18/08/2019 9:00:0026.0690,03.71636261012
18/08/2019 8:50:0027.4680,02.21645861012
18/08/2019 8:40:0027.0640,00.72395671012
18/08/2019 8:30:0027.0650,00.62105391012
18/08/2019 8:20:0026.7660,00.63195121012
18/08/2019 8:10:0026.5660,01.12734791012
18/08/2019 8:00:0026.3660,01.62754451012
18/08/2019 7:50:0026.2650,01.73074171012
18/08/2019 7:40:0026.1630,01.13223941012
18/08/2019 7:30:0025.7630,01.12913641012
18/08/2019 7:20:0025.3640,01.23083321012
18/08/2019 7:10:0024.8660,01.53083021012
18/08/2019 7:00:0024.4670,01.53052741012
18/08/2019 6:50:0024.1670,01.82912411012
18/08/2019 6:40:0023.8680,02.13011531012
18/08/2019 6:30:0023.7680,02.22801231012
18/08/2019 6:20:0023.6690,02.23001321012
18/08/2019 6:10:0023.5690,02.3302721012
18/08/2019 6:00:0023.6700,02.2293931012
18/08/2019 5:50:0023.5700,02.2296621012
18/08/2019 5:40:0023.4700,02.5310371012
18/08/2019 5:30:0023.4700,02.2299211012
18/08/2019 5:20:0023.5700,01.9311131012
18/08/2019 5:10:0023.6700,01.830951012
18/08/2019 5:00:0023.5710,01.430911012
18/08/2019 4:50:0023.8720,01.230201012
18/08/2019 4:40:0023.8720,01.531101012
18/08/2019 4:30:0023.7730,01.730501012
18/08/2019 4:20:0023.6730,02.131801012
18/08/2019 4:10:0023.6740,02.131201012
18/08/2019 4:00:0023.8750,02.133701012
18/08/2019 3:50:0023.8750,02.132701012
18/08/2019 3:40:0023.8740,02.031201012
18/08/2019 3:30:0023.9750,01.730601012
18/08/2019 3:20:0024.1760,01.829601013
18/08/2019 3:10:0024.1770,01.430801013
18/08/2019 3:00:0024.1770,01.331701013
18/08/2019 2:50:0024.2770,01.931601013
18/08/2019 2:40:0024.2780,01.832201013
18/08/2019 2:30:0024.2780,01.431401013
18/08/2019 2:20:0024.2780,01.030301013
18/08/2019 2:10:0024.1770,01.032901013
18/08/2019 2:00:0024.2770,01.033001013
18/08/2019 1:50:0024.2770,01.134501013
18/08/2019 1:40:0024.3770,01.033901013
18/08/2019 1:30:0024.3760,00.933901013
18/08/2019 1:20:0024.3760,00.932801013
18/08/2019 1:10:0024.3760,01.133701013
18/08/2019 1:00:0024.4760,01.533801013
18/08/2019 0:50:0024.4750,01.233801013
18/08/2019 0:40:0024.4750,01.233101013
18/08/2019 0:30:0024.4760,00.833101013
18/08/2019 0:20:0024.6770,00.51701013
18/08/2019 0:10:0024.6790,00.81301013
18/08/2019 0:00:0024.5800,00.6401014
17/08/2019 23:50:0024.9820,00.327801014
17/08/2019 23:40:0024.9820,01.023901014
17/08/2019 23:30:0024.9820,01.322201014
17/08/2019 23:20:0025.1820,01.321501014
17/08/2019 23:10:0025.1810,01.319601014
17/08/2019 23:00:0025.1810,02.019801014
17/08/2019 22:50:0025.1810,01.919801014
17/08/2019 22:40:0025.2800,02.320001014
17/08/2019 22:30:0025.3800,02.219601014
17/08/2019 22:20:0025.2800,02.519701014
17/08/2019 22:10:0025.3800,02.419801014
17/08/2019 22:00:0025.3790,02.620701014
17/08/2019 21:50:0025.3790,02.720301014
17/08/2019 21:40:0025.4790,02.720401014
17/08/2019 21:30:0025.3780,02.620001014
17/08/2019 21:20:0025.4780,02.619901014
17/08/2019 21:10:0025.4780,02.620701014
17/08/2019 21:00:0025.4780,02.820001014
17/08/2019 20:50:0025.4780,02.720001014
17/08/2019 20:40:0025.4780,02.920101014
17/08/2019 20:30:0025.5770,03.220201014

ÚLTIMES FOTOS WEBCAM
Imatges del Pont
ÚLTIMES DADES

18/08/2019  
22:20h Local  (20:20 GMT)
 
 Velocitat mitjana del Vent
   2,3 m/s
 Direcció del Vent
   61º
 Humitat Relativa
   82 %
 Temperatura Aparent
   28,6 ºC
 Pluja Acumulada
   0,0 l/m²
   Index UV    BAIX
 Temperatura de l'aigua    N/A
 Alçada d'ona    N/A
 Direcció d'ona    N/A
 Velocitat del corrent    N/A
 Direcció del corrent    N/A